EW9652 Weather Reports


time (UTC)temp
C
wind
direction
speed
KPH
gust
KPH
rain 1hr
cm
rain 24hr
cm
rain mn
cm
humidity
%
barometer
mb
20260510120254 16 52 19.3 32.2 0.00 0.00 0.00 80 1012.0
20260510115755 16 13 17.7 32.2 0.00 0.00 0.00 80 1011.9
20260510115252 16 12 17.7 32.2 0.00 0.00 0.00 80 1011.6
20260510114752 16 39 17.7 32.2 0.00 0.00 0.00 80 1011.5
20260510114252 16 32 19.3 29.0 0.00 0.00 0.00 80 1011.4
20260510113746 16 17 20.9 29.0 0.00 0.00 0.00 81 1011.2
20260510113242 16 52 19.3 29.0 0.00 0.00 0.00 80 1011.2
20260510112740 16 18 20.9 29.0 0.00 0.00 0.00 80 1011.1
20260510112240 16 13 19.3 29.0 0.00 0.00 0.00 80 1011.2
20260510112011 16 18 17.7 24.1 0.00 0.00 0.00 80 1011.1
20260510111238 15 14 19.3 25.7 0.00 0.00 0.00 79 1010.9
20260510110738 15 18 17.7 27.4 0.00 0.00 0.00 79 1010.8
20260510110236 15 22 14.5 27.4 0.00 0.00 0.00 79 1010.9
20260510105735 15 359 16.1 22.5 0.00 0.00 0.00 79 1010.7
20260510105236 15 15 16.1 22.5 0.00 0.00 0.00 79 1010.6
20260510104735 15 23 14.5 22.5 0.00 0.00 0.00 79 1010.7
20260510104508 15 1 11.3 20.9 0.00 0.00 0.00 78 1010.7
20260510103735 15 7 12.9 19.3 0.00 0.00 0.00 78 1010.5
20260510103226 16 15 12.9 25.7 0.00 0.00 0.00 77 1010.2
20260510102726 16 48 14.5 25.7 0.00 0.00 0.00 77 1010.1
20260510102226 16 1 16.1 25.7 0.00 0.00 0.00 76 1010.4
20260510101727 16 4 16.1 22.5 0.00 0.00 0.00 76 1010.3
20260510101225 16 26 14.5 20.9 0.00 0.00 0.00 75 1010.0
20260510100722 16 22 12.9 20.9 0.00 0.00 0.00 75 1009.9
20260510100222 16 12 11.3 17.7 0.00 0.00 0.00 75 1009.9
20260510095721 16 11 11.3 17.7 0.00 0.00 0.00 76 1009.6
20260510095452 16 35 12.9 17.7 0.00 0.00 0.00 76 1009.4
20260510094722 16 6 11.3 19.3 0.00 0.00 0.00 75 1009.4
20260510094219 16 60 11.3 19.3 0.00 0.00 0.00 76 1009.0
20260510093950 16 68 9.7 16.1 0.00 0.00 0.00 77 1008.8
20260510093220 16 72 8.0 16.1 0.00 0.00 0.00 77 1008.8
20260510092719 16 37 8.0 12.9 0.00 0.00 0.00 76 1008.7
20260510092218 16 30 6.4 14.5 0.00 0.00 0.00 75 1008.7
20260510091716 16 38 6.4 14.5 0.00 0.00 0.00 75 1008.5
20260510091218 17 32 6.4 14.5 0.00 0.00 0.00 74 1008.4
20260510091214 17 25 6.4 12.9 0.00 0.00 0.00 74 1008.5
20260510090211 17 51 8.0 16.1 0.00 0.00 0.00 75 1008.4
20260510085713 17 44 8.0 16.1 0.00 0.00 0.00 75 1008.2
20260510085441 17 18 8.0 14.5 0.00 0.00 0.00 75 1008.2
20260510084710 17 31 6.4 12.9 0.00 0.00 0.00 74 1008.2
20260510084209 17 43 8.0 12.9 0.00 0.00 0.00 73 1008.3
20260510083931 17 68 6.4 11.3 0.00 0.00 0.00 72 1008.5
20260510083200 18 15 6.4 12.9 0.00 0.00 0.00 72 1008.4
20260510082930 18 39 8.0 12.9 0.00 0.00 0.00 72 1008.6
20260510082158 18 23 8.0 16.1 0.00 0.00 0.00 71 1008.4
20260510081659 18 73 8.0 16.1 0.00 0.00 0.00 71 1008.3
20260510081155 18 92 11.3 22.5 0.00 0.00 0.00 71 1008.6
20260510080654 18 84 11.3 22.5 0.00 0.00 0.00 71 1008.6
20260510080151 18 56 14.5 29.0 0.00 0.00 0.00 70 1008.5
20260510075653 18 51 17.7 29.0 0.00 0.00 0.00 70 1008.5
20260510075151 19 116 17.7 25.7 0.00 0.00 0.00 70 1008.4
20260510074652 19 87 12.9 22.5 0.00 0.00 0.00 69 1008.5
20260510074150 19 89 6.4 20.9 0.00 0.00 0.00 68 1008.3
20260510073649 19 116 8.0 16.1 0.00 0.00 0.00 66 1008.3
20260510073149 20 70 8.0 17.7 0.00 0.00 0.00 66 1008.2
20260510072650 20 53 8.0 17.7 0.00 0.00 0.00 65 1008.1
20260510072149 20 84 9.7 17.7 0.00 0.00 0.00 64 1008.1
20260510071648 20 91 12.9 27.4 0.00 0.00 0.00 64 1008.0
20260510071417 20 70 16.1 27.4 0.00 0.00 0.00 64 1007.9
20260510070645 20 41 17.7 25.7 0.00 0.00 0.00 63 1008.0
20260510070146 20 53 16.1 25.7 0.00 0.00 0.00 63 1008.0
20260510065643 20 41 14.5 24.1 0.00 0.00 0.00 62 1008.1
20260510065144 20 13 14.5 24.1 0.00 0.00 0.00 60 1008.1
20260510064644 21 28 16.1 27.4 0.00 0.00 0.00 59 1008.3
20260510064412 21 11 16.1 27.4 0.00 0.00 0.00 57 1008.4
20260510063913 21 25 16.1 29.0 0.00 0.00 0.00 55 1008.4
20260510063139 21 23 16.1 29.0 0.00 0.00 0.00 53 1008.4
20260510062640 22 32 14.5 24.1 0.00 0.00 0.00 48 1008.3
20260510062411 22 65 16.1 24.1 0.00 0.00 0.00 47 1008.3
20260510061640 22 24 16.1 29.0 0.00 0.00 0.00 44 1008.2
20260510061139 22 16 16.1 29.0 0.00 0.00 0.00 38 1008.1
20260510060637 23 43 14.5 25.7 0.00 0.00 0.00 29 1007.8
20260510060137 23 93 11.3 25.7 0.00 0.00 0.00 26 1007.6
20260510055636 23 58 8.0 19.3 0.00 0.00 0.00 21 1007.6
20260510055135 24 77 6.4 14.5 0.00 0.00 0.00 20 1007.4
20260510054633 24 61 8.0 14.5 0.00 0.00 0.00 20 1007.1
20260510054405 24 46 8.0 14.5 0.00 0.00 0.00 20 1007.1
20260510053633 24 53 8.0 14.5 0.00 0.00 0.00 20 1007.0
20260510053131 24 40 8.0 14.5 0.00 0.00 0.00 21 1007.0
20260510052632 24 29 6.4 14.5 0.00 0.00 0.00 20 1007.1
20260510052126 24 60 3.2 14.5 0.00 0.00 0.00 20 1007.2
20260510051626 24 46 3.2 6.4 0.00 0.00 0.00 20 1007.2
20260510051124 24 20 3.2 6.4 0.00 0.00 0.00 20 1007.3
20260510050843 24 15 1.6 6.4 0.00 0.00 0.00 20 1007.4
20260510050112 25 15 3.2 6.4 0.00 0.00 0.00 19 1007.4
20260510045605 25 3 4.8 8.0 0.00 0.00 0.00 19 1007.4
20260510045106 25 1 4.8 8.0 0.00 0.00 0.00 18 1007.5
20260510044559 26 45 4.8 8.0 0.00 0.00 0.00 18 1007.4
20260510044100 26 23 4.8 9.7 0.00 0.00 0.00 17 1007.4
20260510043559 26 16 8.0 14.5 0.00 0.00 0.00 17 1007.4
20260510043059 27 10 11.3 20.9 0.00 0.00 0.00 16 1007.4
20260510042558 27 13 12.9 20.9 0.00 0.00 0.00 16 1007.3
20260510042055 27 27 9.7 20.9 0.00 0.00 0.00 16 1007.2
20260510041827 27 12 6.4 17.7 0.00 0.00 0.00 16 1007.3
20260510041056 28 13 8.0 24.1 0.00 0.00 0.00 15 1007.4
20260510040553 28 339 16.1 30.6 0.00 0.00 0.00 16 1007.4
20260510040054 28 0 20.9 33.8 0.00 0.00 0.00 16 1007.4
20260510035553 28 341 25.7 45.1 0.00 0.00 0.00 16 1007.2
20260510035054 28 318 25.7 45.1 0.00 0.00 0.00 16 1007.1
20260510034554 27 354 24.1 33.8 0.00 0.00 0.00 16 1006.9
20260510034051 27 359 24.1 37.0 0.00 0.00 0.00 16 1007.3
20260510033551 27 335 17.7 37.0 0.00 0.00 0.00 17 1007.3
20260510033053 27 303 11.3 22.5 0.00 0.00 0.00 16 1007.1
20260510032551 27 327 9.7 19.3 0.00 0.00 0.00 15 1006.9
20260510032053 27 359 12.9 19.3 0.00 0.00 0.00 14 1006.6
20260510031823 26 17 9.7 16.1 0.00 0.00 0.00 14 1006.5
20260510031053 26 25 9.7 12.9 0.00 0.00 0.00 15 1006.6
20260510030551 26 25 11.3 19.3 0.00 0.00 0.00 15 1006.7
20260510030050 25 24 9.7 19.3 0.00 0.00 0.00 16 1006.6
20260510025550 25 1 4.8 12.9 0.00 0.00 0.00 16 1006.6
20260510025321 26 336 1.6 8.0 0.00 0.00 0.00 16 1006.4
20260510024549 26 236 1.6 6.4 0.00 0.00 0.00 15 1006.1
20260510024041 26 142 0.0 4.8 0.00 0.00 0.00 14 1005.9
20260510023538 26 115 0.0 0.0 0.00 0.00 0.00 14 1005.7
20260510023305 26 115 0.0 1.6 0.00 0.00 0.00 14 1005.7
20260510022524 26 99 1.6 4.8 0.00 0.00 0.00 14 1005.6
20260510022013 27 168 3.2 6.4 0.00 0.00 0.00 14 1005.6
20260510021507 27 206 6.4 12.9 0.00 0.00 0.00 14 1005.6
20260510021243 28 184 9.7 16.1 0.00 0.00 0.00 14 1005.4
20260510021007 27 200 9.7 14.5 0.00 0.00 0.00 13 1005.5
20260510020003 28 207 9.7 16.1 0.00 0.00 0.00 17 1005.4
20260510015504 28 223 8.0 16.1 0.00 0.00 0.00 14 1005.3
20260510015236 28 208 3.2 9.7 0.00 0.00 0.00 17 1005.1
20260510014453 29 210 1.6 3.2 0.00 0.00 0.00 17 1005.1
20260510013953 29 223 0.0 3.2 0.00 0.00 0.00 14 1005.0
20260510013451 29 348 0.0 0.0 0.00 0.00 0.00 12 1004.9
20260510012951 29 348 0.0 0.0 0.00 0.00 0.00 11 1004.9
20260510012715 29 348 0.0 0.0 0.00 0.00 0.00 11 1004.9
20260510011928 29 348 0.0 0.0 0.00 0.00 0.00 11 1004.8
20260510011421 29 348 0.0 0.0 0.00 0.00 0.00 11 1004.7
20260510010906 30 348 1.6 4.8 0.00 0.00 0.00 10 1004.7
20260510010348 30 348 4.8 9.7 0.00 0.00 0.00 10 1004.7
20260510010118 30 0 4.8 9.7 0.00 0.00 0.00 10 1004.6
20260510005349 30 344 6.4 9.7 0.00 0.00 0.00 10 1004.5
20260510004847 31 346 8.0 12.9 0.00 0.00 0.00 10 1004.6
20260510004348 31 336 9.7 16.1 0.00 0.00 0.00 10 1004.6
20260510003848 31 333 9.7 16.1 0.00 0.00 0.00 9 1004.5
20260510003348 31 344 8.0 12.9 0.00 0.00 0.00 9 1004.5
20260510003116 31 352 6.4 12.9 0.00 0.00 0.00 9 1004.6
20260510002346 31 353 9.7 16.1 0.00 0.00 0.00 9 1004.5
20260510001844 31 1 11.3 16.1 0.00 0.00 0.00 9 1004.6
20260510001341 31 330 11.3 20.9 0.00 0.00 0.00 9 1004.6
20260510000842 31 329 11.3 22.5 0.00 0.00 0.00 9 1004.6
20260510000341 31 335 12.9 22.5 0.00 0.00 0.00 9 1004.6
20260509235833 31 344 14.5 22.5 0.00 0.00 0.00 9 1004.6
20260509235333 31 326 12.9 22.5 0.00 0.00 0.00 9 1004.6
20260509234831 31 345 9.7 17.7 0.00 0.00 0.00 8 1004.6
20260509234602 31 311 8.0 17.7 0.00 0.00 0.00 8 1004.7
20260509233830 31 347 12.9 25.7 0.00 0.00 0.00 8 1004.7
20260509233328 31 352 14.5 25.7 0.00 0.00 0.00 8 1004.8
20260509232827 32 307 14.5 25.7 0.00 0.00 0.00 9 1004.8
20260509232325 32 292 11.3 25.7 0.00 0.00 0.00 8 1004.9
20260509231825 32 300 9.7 16.1 0.00 0.00 0.00 8 1004.9
20260509231551 31 359 14.5 32.2 0.00 0.00 0.00 8 1005.0
20260509230819 32 342 14.5 32.2 0.00 0.00 0.00 8 1005.0
20260509230320 32 288 12.9 22.5 0.00 0.00 0.00 8 1004.9
20260509225819 32 346 11.3 22.5 0.00 0.00 0.00 8 1005.0
20260509225313 32 290 12.9 25.7 0.00 0.00 0.00 8 1005.0
20260509225043 32 315 16.1 29.0 0.00 0.00 0.00 8 1005.1
20260509224312 32 252 14.5 29.0 0.00 0.00 0.00 8 1005.2
20260509223811 32 335 14.5 25.7 0.00 0.00 0.00 9 1005.2
20260509223308 32 354 12.9 25.7 0.00 0.00 0.00 8 1005.3
20260509223041 31 290 9.7 17.7 0.00 0.00 0.00 8 1005.4
20260509222309 32 283 12.9 29.0 0.00 0.00 0.00 9 1005.5
20260509222040 31 319 16.1 29.0 0.00 0.00 0.00 9 1005.5
20260509221309 32 352 12.9 25.7 0.00 0.00 0.00 9 1005.6
20260509220805 32 354 14.5 30.6 0.00 0.00 0.00 9 1005.8
20260509220305 32 280 16.1 30.6 0.00 0.00 0.00 9 1005.8
20260509215805 32 274 16.1 30.6 0.00 0.00 0.00 9 1005.9
20260509215536 32 300 16.1 30.6 0.00 0.00 0.00 9 1005.8
20260509214805 32 278 17.7 32.2 0.00 0.00 0.00 8 1006.0
20260509214534 32 276 14.5 32.2 0.00 0.00 0.00 8 1005.9
20260509213801 32 290 12.9 27.4 0.00 0.00 0.00 9 1006.1
20260509213301 32 0 16.1 29.0 0.00 0.00 0.00 8 1006.0
20260509212802 32 276 17.7 38.6 0.00 0.00 0.00 8 1006.1
20260509212532 32 335 17.7 38.6 0.00 0.00 0.00 8 1006.2
20260509211801 32 345 14.5 32.2 0.00 0.00 0.00 8 1006.2
20260509211258 32 288 17.7 30.6 0.00 0.00 0.00 6 1006.3
20260509211028 31 330 17.7 35.4 0.00 0.00 0.00 9 1006.3
20260509210257 32 314 16.1 35.4 0.00 0.00 0.00 10 1006.3
20260509210028 32 359 17.7 32.2 0.00 0.00 0.00 10 1006.4
20260509205254 32 254 17.7 29.0 0.00 0.00 0.00 9 1006.5
20260509204756 32 283 16.1 30.6 0.00 0.00 0.00 10 1006.5
20260509204253 32 332 17.7 32.2 0.00 0.00 0.00 10 1006.5
20260509204024 31 342 20.9 32.2 0.00 0.00 0.00 9 1006.6
20260509203254 31 324 20.9 32.2 0.00 0.00 0.00 11 1006.7
20260509202753 31 349 19.3 32.2 0.00 0.00 0.00 12 1006.7
20260509202522 31 314 19.3 37.0 0.00 0.00 0.00 12 1006.7
20260509201751 31 345 19.3 37.0 0.00 0.00 0.00 11 1006.7
20260509201520 31 276 19.3 40.2 0.00 0.00 0.00 13 1006.8
20260509200749 31 351 19.3 40.2 0.00 0.00 0.00 10 1006.8
20260509200246 31 303 19.3 35.4 0.00 0.00 0.00 12 1006.8
20260509195747 31 311 17.7 35.4 0.00 0.00 0.00 10 1006.8
20260509195247 32 299 16.1 32.2 0.00 0.00 0.00 11 1006.9
20260509194746 32 271 17.7 33.8 0.00 0.00 0.00 13 1006.9
20260509194251 31 247 14.5 27.4 0.00 0.00 0.00 12 1006.9
20260509194247 31 267 16.1 33.8 0.00 0.00 0.00 12 1006.8
20260509193244 31 276 12.9 24.1 0.00 0.00 0.00 14 1007.0
20260509192743 31 307 16.1 25.7 0.00 0.00 0.00 15 1007.3
20260509192243 31 259 14.5 27.4 0.00 0.00 0.00 15 1007.3
20260509191732 31 301 16.1 27.4 0.00 0.00 0.00 16 1007.4
20260509191233 30 287 16.1 29.0 0.00 0.00 0.00 16 1007.4
20260509190732 31 263 16.1 38.6 0.00 0.00 0.00 16 1007.5
20260509190232 30 292 16.1 38.6 0.00 0.00 0.00 15 1007.6
20260509185730 31 220 14.5 30.6 0.00 0.00 0.00 15 1007.6
20260509185229 30 252 16.1 25.7 0.00 0.00 0.00 15 1007.9
20260509184729 30 261 14.5 32.2 0.00 0.00 0.00 16 1007.9
20260509184228 30 274 14.5 32.2 0.00 0.00 0.00 16 1007.9
20260509183730 30 310 16.1 29.0 0.00 0.00 0.00 17 1008.0
20260509183228 30 265 14.5 29.0 0.00 0.00 0.00 16 1008.1
20260509182727 30 257 12.9 27.4 0.00 0.00 0.00 17 1008.1
20260509182458 30 240 12.9 27.4 0.00 0.00 0.00 17 1008.2
20260509181726 30 291 12.9 25.7 0.00 0.00 0.00 17 1008.4
20260509181228 30 250 11.3 25.7 0.00 0.00 0.00 18 1008.5
20260509180722 29 307 12.9 22.5 0.00 0.00 0.00 20 1008.6
20260509180221 28 252 14.5 29.0 0.00 0.00 0.00 20 1008.9
20260509180217 29 0 12.9 22.5 0.00 0.00 0.00 20 1008.8
20260509175216 28 200 17.7 32.2 0.00 0.00 0.00 20 1009.1
20260509174712 28 206 17.7 35.4 0.00 0.00 0.00 21 1009.2
20260509174213 28 236 14.5 35.4 0.00 0.00 0.00 21 1009.3
20260509173712 28 206 14.5 27.4 0.00 0.00 0.00 23 1009.3
20260509173443 27 235 17.7 32.2 0.00 0.00 0.00 24 1009.5
20260509172710 27 226 16.1 32.2 0.00 0.00 0.00 25 1009.5
20260509172211 27 219 11.3 27.4 0.00 0.00 0.00 25 1009.6
20260509171942 27 226 11.3 25.7 0.00 0.00 0.00 28 1009.8
20260509171215 26 252 11.3 33.8 0.00 0.00 0.00 29 1009.8
20260509171211 27 248 12.9 27.4 0.00 0.00 0.00 28 1009.9
20260509170438 26 205 12.9 33.8 0.00 0.00 0.00 27 1009.9
20260509165704 26 207 14.5 30.6 0.00 0.00 0.00 28 1010.0
20260509165202 26 243 14.5 25.7 0.00 0.00 0.00 29 1010.1
20260509164933 26 237 14.5 25.7 0.00 0.00 0.00 30 1010.2
20260509164203 26 243 14.5 25.7 0.00 0.00 0.00 29 1010.2
20260509163702 25 232 14.5 25.7 0.00 0.00 0.00 32 1010.1
20260509163200 25 194 14.5 30.6 0.00 0.00 0.00 31 1010.4
20260509162700 25 205 17.7 30.6 0.00 0.00 0.00 32 1010.4
20260509162159 25 231 17.7 30.6 0.00 0.00 0.00 33 1010.4
20260509161656 25 180 17.7 32.2 0.00 0.00 0.00 33 1010.4
20260509161157 25 164 17.7 32.2 0.00 0.00 0.00 34 1010.5
20260509160658 25 214 19.3 32.2 0.00 0.00 0.00 35 1010.5
20260509160156 24 201 20.9 32.2 0.00 0.00 0.00 35 1010.5
20260509155656 24 148 20.9 30.6 0.00 0.00 0.00 36 1010.5
20260509155157 24 212 20.9 30.6 0.00 0.00 0.00 35 1010.5
20260509154657 24 213 19.3 30.6 0.00 0.00 0.00 34 1010.6
20260509154425 24 181 17.7 29.0 0.00 0.00 0.00 35 1010.7
20260509153654 24 202 16.1 29.0 0.00 0.00 0.00 36 1010.7
20260509153152 23 171 16.1 29.0 0.00 0.00 0.00 38 1010.8
20260509152651 23 179 17.7 27.4 0.00 0.00 0.00 39 1010.9
20260509152150 23 131 16.1 27.4 0.00 0.00 0.00 40 1010.9
20260509151650 22 216 12.9 24.1 0.00 0.00 0.00 42 1011.0
20260509151421 22 187 12.9 22.5 0.00 0.00 0.00 46 1011.1
20260509150648 22 151 11.3 22.5 0.00 0.00 0.00 48 1011.1
20260509150148 21 176 11.3 16.1 0.00 0.00 0.00 50 1011.2
20260509145646 21 172 11.3 17.7 0.00 0.00 0.00 51 1011.3
20260509145147 20 190 9.7 17.7 0.00 0.00 0.00 52 1011.4
20260509144646 20 184 11.3 19.3 0.00 0.00 0.00 53 1011.5
20260509144146 19 178 11.3 19.3 0.00 0.00 0.00 52 1011.6
20260509143646 19 204 12.9 19.3 0.00 0.00 0.00 52 1011.7
20260509143146 19 205 11.3 20.9 0.00 0.00 0.00 53 1011.7
20260509142646 18 160 6.4 20.9 0.00 0.00 0.00 54 1011.8
20260509142144 18 129 1.6 11.3 0.00 0.00 0.00 50 1011.8
20260509141909 17 213 1.6 8.0 0.00 0.00 0.00 48 1011.9
20260509141138 17 177 1.6 6.4 0.00 0.00 0.00 47 1012.0
20260509140630 17 179 1.6 6.4 0.00 0.00 0.00 46 1012.0
20260509140402 17 183 0.0 1.6 0.00 0.00 0.00 46 1012.1
20260509135628 17 146 0.0 0.0 0.00 0.00 0.00 46 1012.1
20260509135113 17 146 0.0 0.0 0.00 0.00 0.00 44 1012.1
20260509134543 16 146 0.0 0.0 0.00 0.00 0.00 44 1012.1
20260509134042 16 179 0.0 1.6 0.00 0.00 0.00 45 1012.1
20260509133518 16 181 0.0 1.6 0.00 0.00 0.00 45 1012.1
20260509133251 15 1 0.0 0.0 0.00 0.00 0.00 47 1012.0
20260509132452 15 1 0.0 0.0 0.00 0.00 0.00 48 1011.9
20260509131953 14 1 0.0 0.0 0.00 0.00 0.00 49 1012.0
20260509131440 13 1 0.0 0.0 0.00 0.00 0.00 49 1011.9
20260509130940 13 1 0.0 0.0 0.00 0.00 0.00 51 1011.9
20260509130713 12 1 0.0 0.0 0.00 0.00 0.00 52 1011.8
20260509125934 12 1 0.0 0.0 0.00 0.00 0.00 52 1011.9
20260509125436 11 1 0.0 0.0 0.00 0.00 0.00 53 1011.9
20260509124916 11 1 0.0 0.0 0.00 0.00 0.00 54 1011.9
20260509124417 10 1 0.0 0.0 0.00 0.00 0.00 55 1011.8
20260509123858 10 1 0.0 0.0 0.00 0.00 0.00 56 1011.8
20260509123353 10 1 0.0 0.0 0.00 0.00 0.00 56 1011.7
20260509122852 10 1 0.0 0.0 0.00 0.00 0.00 57 1011.7
20260509122352 9 1 0.0 0.0 0.00 0.00 0.00 58 1011.8
20260509121848 9 1 0.0 0.0 0.00 0.00 0.00 57 1011.6
20260509121346 9 1 0.0 0.0 0.00 0.00 0.00 57 1011.7
20260509120845 9 1 0.0 0.0 0.00 0.00 0.00 57 1011.7